Powrót do katalogu

TIANQI 27

AktywnyŁącznośćLEO
NORAD 59911·PAYLOAD·🇨🇳 China

Wystrzelony May 29, 2024 z Yellow Sea Launch Area

Loading…

Następne Przeloty (najbliższe 24 godziny)

TLE

ŚwieżeSource: Space-Track

Epoka: Sep 14, 2026, 22:35 UTC

1 59911U 24102C   26257.94153622 -.00000025  00000-0  71128-4 0  9999
2 59911  44.9770 222.0657 0008603 313.6083  46.4035 13.99175617117474

Śledź TIANQI 27 w czasie rzeczywistym z AllMySat

Download on the App Store